Showing default

JILIN-01 KUANFU 02B 6, 61194

Orbit data source: Space-Track

JILIN-01 KUANFU 02B 6, 61194 is a payload satellite owned by Changguang WJ (CN) in SSO that was launched on Fri, 20 Sep 2024 UTC via a CHANG ZHENG 2D launch vehicle from the Taiyaun Space Center, China (TSC). Payload-class satellites include a variety of spacecraft equipped with specific instruments for various scientific and technological missions. These include communications satellites like Starlink; space stations such as the ISS; scientific satellites like the Hubble; Earth observation satellites from companies like Planet Labs, Umbra, and HawkEye 360; GPS; miniature CubeSats for education and research; and military/defense satellites.

Loading next visibility...
Identifier
61194, 2024-169F
Orbit
SSO
Country
Flag of CNCN / PRC
Related business
Manufacturer
HARB/CGSTL
Mission
Operational Commercial Imaging
Bus & Motor
JL-1, Unknown motor
Mass
230 kg wet, ~200 kg dry
Launch date (UTC)
2024-09-20 (2 years ago)
Launch vehicle
CHANG ZHENG 2D
Launch site
Taiyaun Space Center, China (TSC)
Object type
Payload
Rocket body
Debris
Shape & HBR
Box + 2 Pan, 0.8 m
Radar Cross Section
0.514 m², Large (>1 m²)

Expand to show TLE details & history
Last TLE update: 6 hours ago

TLE from 6 hours ago
0 JILIN-01 KUANFU 02B 6
1 61194U 24169F   26163.83990897  .00003378  00000-0  21808-3 0  9997
2 61194  97.5561 253.4652 0015764 342.2079  17.8596 15.08840893 95188
Epoch: 2026-06-12T20:09Z
TLE epoch observation values (Epoch: 2026-06-12T20:09:28.135Z)
Latitude
0.00004°
Longitude
49.93438°
Altitude
532.431 km
Speed
7.602 km/s
True Right ascension
16h 53m 51s
True Declination
0° 00' 00"
Sunlit
Object was in full shadow at epoch
Visualization orbit readout
Latitude
Unknown
Longitude
Unknown
Altitude
Unknown
Speed
Unknown
Apparent Right ascension
Unknown
Apparent Declination
Unknown
Sunlit
N/A
Visualization observer readout
Local Sidereal Time
12:42:42
Azimuth
Unknown
Elevation
Unknown
Doppler factor
Unknown
Orbital elements
Apogee altitude
547.628 km
Perigee altitude
525.827 km
Semi-major axis
6,914.865 km
Eccentricity
0.00158
Inclination
97.5561°
RAAN
253.4652°
Arg. of periapsis
342.2079°
True anomaly
17.9151°
Mean anomaly
17.8596°
Eccentric anomaly
17.88734°
Mean motion
3.77457 °/min
Orbital period
95.38 mins
BSTAR
0.00021808
Loading maneuver chart data...
Computing Atmospheric mass density...
Loading historical data...
Loading historical data...
Loading historical data...
Loading historical data...
Loading historical data...
Loading historical data...
Loading historical data...

Documentation

Showing up to 5 results
|